AMAZONAS 5

Last updated on Feb. 25, 2020, 4:50 a.m. UTC

1 42934U 17053A   20055.83734035 -.00000293  00000-0  00000-0 0  9998
2 42934   0.0048 355.5573 0005026 337.6375  61.4073  1.00267446  8982
UTC
Height (km)
Latitude
Longitude
Inclination
Orbital Period
UTC large
Height (km)
Speed (km/s)
/
Latitude / Longitude
Inclination (degrees)
Orbital Period (minutes)
Azimuth
Elevation
Range (km)
Doppler Factor
iOS Compass Heading
iOS Angle

Next 30 passes for location: Hong Kong

Rise time Rise Azimuth (degrees) Set time Set Azimuth (degrees) Duration Max altitude (degrees)

No matching passes for this satellites